When you browse on this site, cookies collect data to enhance your experience and personalize the content and advertising you see.
Visit our Privacy Policy to learn more. By continuing to use the site, you agree to this use of cookies and data.
  • In Belgien
  • Länderverzeichnis
  • Für 7 Tage
  • Wassertemperatur
  • Satellitenkarten
  • Wetterkarte
  • Widgets
  • user-avatar
    Anmelden

    Stündliche Wetter Kranewo

    Heute, 19 Januar, Samstag

    Zeit Temperatur Niederschläge Wind Luftdruck Luftfeuchtigkeit
    00:00 +4°C° 0 mm 3 m/S 757 mmHg 77%
    01:00 +4°C° 0 mm 3 m/S 757 mmHg 74%
    02:00 +4°C° 0 mm 3 m/S 756 mmHg 68%
    03:00 +4°C° 0 mm 3 m/S 757 mmHg 69%
    04:00 +4°C° 0 mm 3 m/S 757 mmHg 70%
    05:00 +4°C° 0 mm 4 m/S 757 mmHg 71%
    06:00 +3°C° 0 mm 4 m/S 758 mmHg 75%
    07:00 +1°C° 0 mm 4 m/S 759 mmHg 79%
    08:00 0°C° 0 mm 4 m/S 759 mmHg 83%
    09:00 +1°C° 0 mm 5 m/S 759 mmHg 82%
    10:00 +2°C° 0 mm 5 m/S 760 mmHg 81%
    11:00 +3°C° 0 mm 5 m/S 761 mmHg 80%
    12:00 +3°C° 0 mm 5 m/S 761 mmHg 78%
    13:00 +3°C° 0 mm 5 m/S 761 mmHg 77%
    14:00 +3°C° 0 mm 5 m/S 761 mmHg 76%
    15:00 +3°C° 0 mm 5 m/S 761 mmHg 78%
    16:00 +3°C° 0 mm 5 m/S 761 mmHg 81%
    17:00 +2°C° 0 mm 5 m/S 762 mmHg 83%
    18:00 +2°C° 0.2 mm 5 m/S 762 mmHg 85%
    19:00 +2°C° 0.2 mm 5 m/S 762 mmHg 86%
    20:00 +2°C° 0.2 mm 5 m/S 762 mmHg 88%
    21:00 +2°C° 0.6 mm 5 m/S 762 mmHg 89%
    22:00 +2°C° 0.6 mm 5 m/S 762 mmHg 90%
    23:00 +2°C° 0.6 mm 5 m/S 762 mmHg 91%

    Morgen, 20 Januar, Sonntag

    Zeit Temperatur Niederschläge Wind Luftdruck Luftfeuchtigkeit
    00:00 +3°C° 0.4 mm 5 m/S 761 mmHg 92%
    01:00 +3°C° 0.4 mm 5 m/S 761 mmHg 93%
    02:00 +3°C° 0.4 mm 5 m/S 761 mmHg 93%
    03:00 +3°C° 0.2 mm 5 m/S 760 mmHg 94%
    04:00 +3°C° 0.2 mm 5 m/S 760 mmHg 94%
    05:00 +3°C° 0.2 mm 5 m/S 760 mmHg 94%
    06:00 +5°C° 0.2 mm 5 m/S 759 mmHg 95%
    07:00 +5°C° 0.2 mm 5 m/S 759 mmHg 96%
    08:00 +5°C° 0.2 mm 5 m/S 759 mmHg 96%
    09:00 +6°C° 0.1 mm 5 m/S 759 mmHg 97%
    10:00 +6°C° 0.1 mm 5 m/S 759 mmHg 97%
    11:00 +7°C° 0.1 mm 5 m/S 759 mmHg 97%
    12:00 +7°C° 0.1 mm 4 m/S 758 mmHg 96%
    13:00 +7°C° 0.1 mm 4 m/S 757 mmHg 96%
    14:00 +8°C° 0.1 mm 4 m/S 757 mmHg 95%
    15:00 +9°C° 0 mm 3 m/S 757 mmHg 95%
    16:00 +9°C° 0 mm 3 m/S 756 mmHg 96%
    17:00 +9°C° 0 mm 3 m/S 756 mmHg 96%
    18:00 +8°C° 0.1 mm 4 m/S 756 mmHg 95%
    19:00 +8°C° 0.1 mm 4 m/S 756 mmHg 95%
    20:00 +8°C° 0.1 mm 4 m/S 756 mmHg 94%
    21:00 +8°C° 0.5 mm 4 m/S 755 mmHg 95%
    22:00 +7°C° 0.5 mm 4 m/S 755 mmHg 96%
    23:00 +7°C° 0.5 mm 4 m/S 755 mmHg 96%

    übermorgen, 21 Januar, Montag

    Zeit Temperatur Niederschläge Wind Luftdruck Luftfeuchtigkeit
    00:00 +7°C° 0.1 mm 4 m/S 755 mmHg 95%
    01:00 +6°C° 0.1 mm 4 m/S 756 mmHg 94%
    02:00 +5°C° 0.1 mm 4 m/S 756 mmHg 93%
    03:00 +3°C° 0 mm 5 m/S 756 mmHg 91%
    04:00 +3°C° 0 mm 5 m/S 756 mmHg 90%
    05:00 +2°C° 0 mm 6 m/S 756 mmHg 89%
    06:00 +2°C° 0 mm 6 m/S 757 mmHg 89%
    07:00 +1°C° 0 mm 6 m/S 757 mmHg 89%
    08:00 +1°C° 0 mm 6 m/S 758 mmHg 89%
    09:00 +2°C° 0 mm 5 m/S 758 mmHg 86%
    10:00 +2°C° 0 mm 5 m/S 759 mmHg 83%
    11:00 +3°C° 0 mm 5 m/S 759 mmHg 80%
    12:00 +3°C° 0 mm 5 m/S 759 mmHg 77%
    13:00 +3°C° 0 mm 5 m/S 759 mmHg 75%
    14:00 +5°C° 0 mm 5 m/S 759 mmHg 72%
    15:00 +3°C° 0 mm 5 m/S 760 mmHg 74%
    16:00 +3°C° 0 mm 4 m/S 760 mmHg 76%
    17:00 +1°C° 0 mm 4 m/S 760 mmHg 79%
    18:00 +1°C° 0 mm 4 m/S 761 mmHg 81%
    19:00 0°C° 0 mm 4 m/S 761 mmHg 82%
    20:00 -1°C° 0 mm 4 m/S 762 mmHg 84%
    21:00 0°C° 0 mm 3 m/S 762 mmHg 85%
    22:00 0°C° 0 mm 3 m/S 762 mmHg 86%
    23:00 0°C° 0 mm 3 m/S 762 mmHg 86%

    22 Januar, Dienstag

    Zeit Temperatur Niederschläge Wind Luftdruck Luftfeuchtigkeit
    00:00 0°C° 0 mm 3 m/S 762 mmHg 87%
    01:00 0°C° 0 mm 3 m/S 762 mmHg 88%
    02:00 0°C° 0 mm 3 m/S 762 mmHg 89%
    03:00 0°C° 0 mm 3 m/S 762 mmHg 89%
    04:00 0°C° 0 mm 3 m/S 761 mmHg 89%
    05:00 +1°C° 0 mm 2 m/S 761 mmHg 89%
    06:00 +1°C° 0 mm 3 m/S 761 mmHg 88%
    07:00 +1°C° 0 mm 3 m/S 761 mmHg 87%
    08:00 +2°C° 0 mm 3 m/S 761 mmHg 86%
    09:00 +2°C° 0 mm 3 m/S 761 mmHg 83%
    10:00 +3°C° 0 mm 4 m/S 760 mmHg 81%
    11:00 +4°C° 0 mm 4 m/S 760 mmHg 79%
    12:00 +4°C° 0 mm 4 m/S 760 mmHg 80%
    13:00 +4°C° 0 mm 4 m/S 759 mmHg 80%
    14:00 +4°C° 0 mm 4 m/S 758 mmHg 80%
    15:00 +4°C° 0 mm 4 m/S 758 mmHg 83%
    16:00 +4°C° 0 mm 4 m/S 757 mmHg 85%
    17:00 +3°C° 0 mm 5 m/S 757 mmHg 87%
    18:00 +3°C° 0 mm 5 m/S 756 mmHg 88%
    19:00 +3°C° 0 mm 5 m/S 756 mmHg 90%
    20:00 +3°C° 0 mm 6 m/S 756 mmHg 91%
    21:00 +4°C° 0 mm 6 m/S 755 mmHg 91%
    22:00 +4°C° 0 mm 7 m/S 755 mmHg 92%
    23:00 +4°C° 0 mm 7 m/S 755 mmHg 92%

    23 Januar, Mittwoch

    Zeit Temperatur Niederschläge Wind Luftdruck Luftfeuchtigkeit
    00:00 +4°C° 0.1 mm 7 m/S 754 mmHg 92%
    01:00 +5°C° 0.1 mm 6 m/S 753 mmHg 92%
    02:00 +5°C° 0.1 mm 6 m/S 753 mmHg 92%
    03:00 +5°C° 0.1 mm 6 m/S 752 mmHg 94%
    04:00 +5°C° 0.1 mm 7 m/S 751 mmHg 95%
    05:00 +5°C° 0.1 mm 7 m/S 751 mmHg 96%
    06:00 +5°C° 3.1 mm 7 m/S 750 mmHg 96%
    07:00 +7°C° 3.1 mm 6 m/S 750 mmHg 96%
    08:00 +7°C° 3.1 mm 6 m/S 750 mmHg 96%
    09:00 +6°C° 0.6 mm 7 m/S 750 mmHg 93%
    10:00 +8°C° 0.6 mm 7 m/S 749 mmHg 89%
    11:00 +8°C° 0.6 mm 7 m/S 749 mmHg 86%
    12:00 +9°C° 0.1 mm 8 m/S 749 mmHg 82%
    13:00 +10°C° 0.1 mm 8 m/S 748 mmHg 79%
    14:00 +11°C° 0.1 mm 8 m/S 748 mmHg 76%
    15:00 +11°C° 0 mm 8 m/S 748 mmHg 77%
    16:00 +10°C° 0 mm 7 m/S 748 mmHg 78%
    17:00 +10°C° 0 mm 7 m/S 748 mmHg 80%
    18:00 +9°C° 0 mm 7 m/S 748 mmHg 83%
    19:00 +9°C° 0 mm 6 m/S 749 mmHg 86%
    20:00 +8°C° 0 mm 6 m/S 749 mmHg 89%
    21:00 +8°C° 0 mm 5 m/S 749 mmHg 90%
    22:00 +8°C° 0 mm 5 m/S 749 mmHg 91%
    23:00 +8°C° 0 mm 5 m/S 749 mmHg 92%

    24 Januar, Donnerstag

    Zeit Temperatur Niederschläge Wind Luftdruck Luftfeuchtigkeit
    00:00 +8°C° 0 mm 5 m/S 749 mmHg 92%
    01:00 +8°C° 0 mm 5 m/S 749 mmHg 92%
    02:00 +8°C° 0 mm 6 m/S 749 mmHg 93%
    03:00 +8°C° 0.4 mm 6 m/S 748 mmHg 92%
    04:00 +8°C° 0.4 mm 7 m/S 748 mmHg 92%
    05:00 +8°C° 0.4 mm 7 m/S 748 mmHg 92%
    06:00 +8°C° 0.1 mm 7 m/S 748 mmHg 92%
    07:00 +7°C° 0.1 mm 8 m/S 748 mmHg 93%
    08:00 +7°C° 0.1 mm 8 m/S 748 mmHg 93%
    09:00 +7°C° 0.2 mm 8 m/S 748 mmHg 90%
    10:00 +9°C° 0.2 mm 7 m/S 748 mmHg 88%
    11:00 +9°C° 0.2 mm 7 m/S 748 mmHg 85%
    12:00 +9°C° 0 mm 5 m/S 747 mmHg 85%
    13:00 +10°C° 0 mm 4 m/S 747 mmHg 86%
    14:00 +10°C° 0 mm 3 m/S 746 mmHg 86%
    15:00 +9°C° 0 mm 3 m/S 746 mmHg 87%
    16:00 +9°C° 0 mm 3 m/S 746 mmHg 88%
    17:00 +8°C° 0 mm 3 m/S 745 mmHg 89%
    18:00 +8°C° 0 mm 3 m/S 745 mmHg 90%
    19:00 +8°C° 0 mm 3 m/S 745 mmHg 91%
    20:00 +8°C° 0 mm 3 m/S 745 mmHg 91%
    21:00 +8°C° 0 mm 3 m/S 745 mmHg 91%
    22:00 +8°C° 0 mm 3 m/S 745 mmHg 91%
    23:00 +8°C° 0 mm 3 m/S 745 mmHg 91%
    Mehr zeigen